CW5920 Weather Reports


time (UTC)temp
C
wind
direction
speed
KPH
gust
KPH
rain 1hr
cm
rain 24hr
cm
rain mn
cm
humidity
%
barometer
mb
20260906110017 25 0.0 0.0 0.00 0.00 0.00 84 1013.1
20260906105017 25 0.0 0.0 0.00 0.00 0.00 84 1013.0
20260906104037 25 0.0 1.6 0.00 0.00 0.00 82 1013.0
20260906103017 25 0.0 0.0 0.00 0.00 0.00 82 1012.9
20260906102017 25 0.0 0.0 0.00 0.00 0.00 81 1012.8
20260906101037 25 0.0 0.0 0.00 0.00 0.00 81 1012.8
20260906100017 26 0.0 0.0 0.00 0.00 0.00 80 1012.7
20260906095017 26 0.0 0.0 0.00 0.00 0.00 80 1012.6
20260906094017 26 0.0 0.0 0.00 0.00 0.00 80 1012.5
20260906093057 26 0.0 0.0 0.00 0.00 0.00 79 1012.5
20260906092017 26 0.0 0.0 0.00 0.00 0.00 79 1012.4
20260906091017 26 0.0 0.0 0.00 0.00 0.00 78 1012.3
20260906090017 26 0.0 0.0 0.00 0.00 0.00 78 1012.4
20260906085016 26 0.0 0.0 0.00 0.00 0.00 78 1012.4
20260906084016 27 0.0 1.6 0.00 0.00 0.00 77 1012.4
20260906083016 27 0.0 1.6 0.00 0.00 0.00 77 1012.3
20260906082036 27 0.0 1.6 0.00 0.00 0.00 77 1012.4
20260906081016 27 0.0 4.8 0.00 0.00 0.00 77 1012.5
20260906080016 27 0.0 0.0 0.00 0.00 0.00 76 1012.4
20260906075016 27 0.0 3.2 0.00 0.00 0.00 76 1012.5
20260906074016 27 158 3.2 8.0 0.00 0.00 0.00 76 1012.5
20260906073016 27 135 1.6 4.8 0.00 0.00 0.00 75 1012.7
20260906072016 27 135 1.6 8.0 0.00 0.00 0.00 75 1012.7
20260906071036 27 158 4.8 9.7 0.00 0.00 0.00 75 1012.8
20260906070016 27 158 4.8 16.1 0.00 0.00 0.00 74 1012.7
20260906065036 28 158 1.6 6.4 0.00 0.00 0.00 74 1012.9
20260906064016 28 158 6.4 11.3 0.00 0.00 0.00 74 1013.1
20260906063016 28 158 6.4 12.9 0.00 0.00 0.00 73 1013.1
20260906062016 28 158 1.6 4.8 0.00 0.00 0.00 73 1013.2
20260906061036 28 158 1.6 6.4 0.00 0.00 0.00 73 1013.2
20260906060016 28 0.0 1.6 0.00 0.00 0.00 73 1013.1
20260906055016 28 158 4.8 9.7 0.00 0.00 0.00 73 1013.0
20260906054016 28 158 3.2 11.3 0.00 0.00 0.00 73 1012.9
20260906053016 28 135 1.6 4.8 0.00 0.00 0.00 73 1012.9
20260906052016 28 0.0 1.6 0.00 0.00 0.00 72 1012.9
20260906051016 28 0.0 4.8 0.00 0.00 0.00 72 1013.0
20260906050016 28 135 3.2 8.0 0.00 0.00 0.00 71 1013.1
20260906045016 28 135 1.6 6.4 0.00 0.00 0.00 71 1013.0
20260906044016 29 135 3.2 8.0 0.00 0.00 0.00 70 1012.9
20260906043016 29 113 6.4 14.5 0.00 0.00 0.00 70 1012.8
20260906042016 29 135 11.3 19.3 0.00 0.00 0.00 69 1012.7
20260906041016 29 135 6.4 14.5 0.00 0.00 0.00 69 1012.7
20260906040016 29 135 6.4 16.1 0.00 0.00 0.00 70 1012.8
20260906035016 29 135 3.2 6.4 0.00 0.00 0.00 70 1012.8
20260906034016 29 113 4.8 9.7 0.00 0.00 0.00 70 1012.8
20260906033016 30 113 6.4 11.3 0.00 0.00 0.00 69 1012.8
20260906032056 30 113 4.8 11.3 0.00 0.00 0.00 69 1013.0
20260906031016 30 113 4.8 11.3 0.00 0.00 0.00 69 1012.8
20260906030016 30 113 6.4 12.9 0.00 0.00 0.00 68 1012.6
20260906025016 30 90 6.4 12.9 0.00 0.00 0.00 67 1012.6
20260906024016 30 113 8.0 16.1 0.00 0.00 0.00 66 1012.4
20260906023016 30 113 6.4 12.9 0.00 0.00 0.00 65 1012.1
20260906022016 31 113 9.7 16.1 0.00 0.00 0.00 64 1012.0
20260906021016 31 113 8.0 16.1 0.00 0.00 0.00 63 1011.9
20260906020016 31 113 9.7 16.1 0.00 0.00 0.00 61 1011.6
20260906015016 31 113 14.5 22.5 0.00 0.00 0.00 60 1011.6
20260906014036 32 90 11.3 16.1 0.00 0.00 0.00 57 1011.4
20260906013036 32 90 16.1 22.5 0.00 0.00 0.00 54 1011.2
20260906012016 33 113 4.8 19.3 0.00 0.00 0.00 50 1010.9
20260906011016 33 113 3.2 11.3 0.00 0.00 0.00 49 1010.8
20260906010016 34 113 4.8 11.3 0.00 0.00 0.00 48 1010.7
20260906005016 34 113 8.0 12.9 0.00 0.00 0.00 47 1010.8
20260906004016 35 113 9.7 17.7 0.00 0.00 0.00 46 1010.8
20260906003036 35 113 14.5 22.5 0.00 0.00 0.00 45 1010.7
20260906002016 35 113 11.3 19.3 0.00 0.00 0.00 44 1010.7
20260906001016 36 113 9.7 14.5 0.00 0.00 0.00 42 1010.6
20260906000016 36 113 4.8 12.9 0.00 0.00 0.00 41 1010.5
20260905235016 36 68 4.8 9.7 0.00 0.00 0.00 41 1010.5
20260905234016 36 90 6.4 14.5 0.00 0.00 0.00 41 1010.4
20260905233016 36 68 4.8 9.7 0.00 0.00 0.00 41 1010.4
20260905232016 36 135 4.8 14.5 0.00 0.00 0.00 41 1010.4
20260905231016 36 113 6.4 17.7 0.00 0.00 0.00 41 1010.5
20260905230016 36 90 8.0 16.1 0.00 0.00 0.00 41 1010.4
20260905225015 36 90 4.8 14.5 0.00 0.00 0.00 41 1010.5
20260905224016 36 90 3.2 12.9 0.00 0.00 0.00 41 1010.3
20260905223015 36 45 6.4 14.5 0.00 0.00 0.00 40 1010.4
20260905222015 36 23 3.2 8.0 0.00 0.00 0.00 41 1010.4
20260905221016 36 338 4.8 14.5 0.00 0.00 0.00 41 1010.4
20260905220016 36 68 11.3 19.3 0.00 0.00 0.00 40 1010.6
20260905215016 36 23 8.0 17.7 0.00 0.00 0.00 40 1010.6
20260905214016 36 68 8.0 20.9 0.00 0.00 0.00 40 1010.7
20260905213016 36 113 4.8 16.1 0.00 0.00 0.00 39 1010.9
20260905212017 37 90 3.2 14.5 0.00 0.00 0.00 39 1011.0
20260905211036 37 90 4.8 12.9 0.00 0.00 0.00 38 1011.2
20260905210016 37 135 8.0 16.1 0.00 0.00 0.00 39 1011.4
20260905205016 37 158 4.8 14.5 0.00 0.00 0.00 40 1011.6
20260905204016 37 135 4.8 14.5 0.00 0.00 0.00 39 1011.6
20260905203036 37 135 4.8 19.3 0.00 0.00 0.00 39 1011.7
20260905202016 37 90 4.8 12.9 0.00 0.00 0.00 39 1011.9
20260905201015 37 135 8.0 16.1 0.00 0.00 0.00 40 1011.9
20260905200016 37 151 6.4 0.0 0.00 0.00 0.00 41 1012.1
20260905195015 36 135 4.8 16.1 0.00 0.00 0.00 42 1012.3
20260905194016 36 0 1.6 6.4 0.00 0.00 0.00 43 1012.5
20260905193016 36 0 1.6 8.0 0.00 0.00 0.00 43 1012.6
20260905192016 36 113 6.4 14.5 0.00 0.00 0.00 42 1012.8
20260905191016 37 90 4.8 11.3 0.00 0.00 0.00 41 1013.0
20260905190015 36 135 9.7 20.9 0.00 0.00 0.00 42 1013.1
20260905185015 36 113 3.2 9.7 0.00 0.00 0.00 41 1013.3
20260905184016 37 158 1.6 11.3 0.00 0.00 0.00 41 1013.6
20260905183016 36 23 1.6 9.7 0.00 0.00 0.00 43 1013.6
20260905182036 36 113 4.8 12.9 0.00 0.00 0.00 41 1013.8
20260905181015 36 158 1.6 16.1 0.00 0.00 0.00 42 1013.9
20260905180015 36 90 4.8 12.9 0.00 0.00 0.00 42 1014.1
20260905175015 36 158 8.0 17.7 0.00 0.00 0.00 44 1014.4
20260905174015 36 68 6.4 12.9 0.00 0.00 0.00 43 1014.3
20260905173016 36 135 6.4 19.3 0.00 0.00 0.00 46 1014.5
20260905172015 35 158 4.8 17.7 0.00 0.00 0.00 47 1014.6
20260905171015 35 135 6.4 16.1 0.00 0.00 0.00 48 1014.6
20260905170056 35 113 4.8 16.1 0.00 0.00 0.00 48 1014.6
20260905165016 35 113 4.8 17.7 0.00 0.00 0.00 48 1014.8
20260905164015 34 135 4.8 14.5 0.00 0.00 0.00 49 1014.8
20260905163016 34 113 4.8 16.1 0.00 0.00 0.00 51 1014.9
20260905162015 34 113 9.7 16.1 0.00 0.00 0.00 50 1014.8
20260905161015 34 158 1.6 14.5 0.00 0.00 0.00 52 1014.8
20260905160016 33 0.0 1.6 0.00 0.00 0.00 53 1014.8
20260905155016 33 158 1.6 12.9 0.00 0.00 0.00 53 1014.9
20260905154035 33 0.0 0.0 0.00 0.00 0.00 57 1014.9
20260905153015 32 158 1.6 9.7 0.00 0.00 0.00 57 1014.9
20260905152015 32 158 1.6 8.0 0.00 0.00 0.00 59 1014.7
20260905151016 31 158 3.2 11.3 0.00 0.00 0.00 59 1014.7
20260905150055 31 158 1.6 8.0 0.00 0.00 0.00 64 1014.7
20260905145015 30 0.0 3.2 0.00 0.00 0.00 67 1014.7
20260905144016 30 0.0 3.2 0.00 0.00 0.00 68 1014.8
20260905143015 30 0.0 1.6 0.00 0.00 0.00 71 1014.8
20260905142016 29 0.0 1.6 0.00 0.00 0.00 72 1014.8
20260905141035 28 0.0 1.6 0.00 0.00 0.00 75 1014.6
20260905140015 28 0.0 1.6 0.00 0.00 0.00 76 1014.6
20260905135015 27 0.0 1.6 0.00 0.00 0.00 79 1014.6
20260905134015 27 0.0 8.0 0.00 0.00 0.00 81 1014.4
20260905133015 26 158 1.6 9.7 0.00 0.00 0.00 84 1014.3
20260905132015 26 0.0 6.4 0.00 0.00 0.00 86 1014.1
20260905131015 25 0.0 6.4 0.00 0.00 0.00 88 1014.0
20260905130015 25 158 1.6 9.7 0.00 0.00 0.00 89 1013.9
20260905125016 25 0.0 8.0 0.00 0.00 0.00 89 1013.8
20260905124015 24 0.0 3.2 0.00 0.00 0.00 89 1013.6
20260905123035 24 0.0 0.0 0.00 0.00 0.00 88 1013.7
20260905122016 24 0.0 1.6 0.00 0.00 0.00 88 1013.7
20260905121015 24 0.0 0.0 0.00 0.00 0.00 86 1013.7
20260905120055 25 0.0 0.0 0.00 0.00 0.00 86 1013.7
20260905115015 25 0.0 0.0 0.00 0.00 0.00 85 1013.7
20260905114015 25 0.0 0.0 0.00 0.00 0.00 85 1013.6
20260905113015 25 0.0 0.0 0.00 0.00 0.00 85 1013.7
20260905112015 25 0.0 0.0 0.00 0.00 0.00 84 1013.7
20260905111016 25 0.0 0.0 0.00 0.00 0.00 84 1013.8